sat.trackr.live / text

‹ back to catalog

STARLINK-4166

NORAD 53291 · 2022-086BB

PAYLOAD ACTIVE UNKNOWN

§ Identity

Operator
Country
US
Launch date
2022-07-24
Launch site
AFETR
Launch vehicle
Mass (kg)
RCS (m²)

Purposes: comms

External: N2YO · Heavens-Above · Gunter

§ Orbital elements

Epoch: 2026-05-25T04:02:45.458016Z

Period
95.44 min
Inclination
53.2138°
Eccentricity
0.0001371
Mean motion
15.08839990 rev/d
Perigee alt
538.8 km
Apogee alt
540.7 km
Semi-major
6,917.9 km
B*
1.7536e-5
RAAN
195.5812°
Arg perigee
72.2671°
Mean anomaly
287.8471°
Rev number
21,280

§ Raw data

STARLINK-41661 53291U 22086BB  26145.16858169 -.00000009  00000+0  17536-4 0  99952 53291  53.2138 195.5812 0001371  72.2671 287.8471 15.08839990212804

JSON: /api/v1/satellites/53291 · /tle

For live sub-satellite position, see the globe view (requires WebGL).

§ Visibility from observer

Set your observer location to see the next 7 days of passes ≥ 10°. The values pass through the URL so the page stays shareable.

No JS? Fill the form by hand. The geolocation button needs JavaScript.